Location: Ariel
(45.9570°N, 122.5700°W)
Time: 23:59:40
(UTC-07:00)

Transit 4A - Pass Details

Date: 28 July 2019
Orbit: 864 x 981 km, 66.8° (Epoch: 25 August)

Event Time Altitude Azimuth Distance (km) Brightness Sun altitude
Rises 02:03:31 0° 232° (SW) 3,653 - -24.2°
Reaches altitude 10° 02:06:10 10° 238° (WSW) 2,719 - -24.1°
Exits shadow 02:09:11 28° 253° (WSW) 1,764 9.1 -24.0°
Maximum altitude 02:12:19 48° 311° (NW) 1,268 8.7 -23.8°
Drops below altitude 10° 02:18:31 10° 25° (NNE) 2,738 11.4 -23.6°
Sets 02:21:12 0° 32° (NNE) 3,682 12.3 -23.4°
